Wilmington, OH

4:40 PM EST on December 13, 2017 (GMT -0500)
Airborne

Weather History for KILN - February, 2013

Change the Weather History Date:

Saturday, February 2, 2013

  Actual Average (KFFO) Record (KFFO)
Temperature  
Mean Temperature 18 °F -  
Max Temperature 28 °F 37 °F 57 °F (2016)
Min Temperature 9 °F 20 °F 9 °F (2007)
Degree Days  
Heating Degree Days 46    
Moisture  
Dew Point 19 °F    
Average Humidity 85    
Maximum Humidity 93    
Minimum Humidity 77    
Precipitation  
Precipitation 0.08 in - - ()
Sea Level Pressure  
Sea Level Pressure 30.09 in    
Wind  
Wind Speed 10 mph (SW)    
Max Wind Speed 16 mph    
Max Gust Speed 20 mph    
Visibility 4 miles    
Events Fog , Snow    
Averages and records for this station are not official NWS values.
T = Trace of Precipitation, MM = Missing Value Source: NWS Daily Summary

Daily Weather History Graph

Daily Weather History Graph

Search for Another Location

Airport or City:

Trip Planner

Search our weather history database for the weather conditions in past years. The results will help you decide how hot, cold, wet, or windy it might be!

Date:

Astronomy

Feb. 02, 2013 Rise Set
Actual Time 7:41 AM EST 5:57 PM EST
Civil Twilight 7:13 AM EST 6:25 PM EST
Nautical Twilight 6:40 AM EST 6:57 PM EST
Astronomical Twilight 6:09 AM EST 7:28 PM EST
Moon No Moon Rise 10:53 AM EST (2/2)
Length of Visible Light 11h 12m
Length of Day
10h 15m
Waning Gibbous, 60% of the Moon is Illuminated
Feb 2
Waning Gibbous
Feb 3
Last Quarter
Feb 10
New
Feb 17
First Quarter
Feb 25
Full

Hourly Weather History & Observations

Time (EST) Temp. Windchill Dew Point Humidity Pressure Visibility Wind Dir Wind Speed Gust Speed Precip Events Conditions
12:54 AM 9.0 °F -0.9 °F 3.0 °F 77% 30.41 in 10.0 mi SSW 5.8 mph - N/A   Clear
1:54 AM 10.9 °F 1.4 °F 5.0 °F 77% 30.38 in 10.0 mi SSW 5.8 mph - N/A   Partly Cloudy
2:54 AM 12.9 °F 3.8 °F 7.0 °F 77% 30.36 in 10.0 mi SSW 5.8 mph - N/A   Mostly Cloudy
4:54 AM 14.0 °F 2.9 °F 9.0 °F 80% 30.33 in 10.0 mi South 8.1 mph - N/A   Overcast
5:54 AM 15.1 °F 6.4 °F 10.0 °F 80% 30.32 in 5.0 mi South 5.8 mph - 0.00 in Snow Light Snow
6:48 AM 15.8 °F 6.1 °F 12.2 °F 86% 30.20 in 1.8 mi SSW 6.9 mph - 0.01 in Snow Light Snow
7:00 AM 15.8 °F 4.2 °F 12.2 °F 86% 30.19 in 2.5 mi SSW 9.2 mph - 0.00 in Snow Light Snow
7:18 AM 17.6 °F 5.7 °F 12.2 °F 79% 30.18 in 3.0 mi SSW 10.4 mph - 0.00 in Snow Light Snow
7:33 AM 17.6 °F 5.0 °F 12.2 °F 79% 30.17 in 2.0 mi South 11.5 mph - 0.00 in Snow Light Snow
7:42 AM 17.6 °F 5.0 °F 12.2 °F 79% 30.17 in 1.8 mi South 11.5 mph - 0.00 in Snow Light Snow
7:54 AM 17.1 °F 3.6 °F 12.9 °F 84% 30.29 in 1.0 mi South 12.7 mph - 0.00 in Snow Light Snow
8:02 AM 15.8 °F 2.7 °F 12.2 °F 86% 30.16 in 0.8 mi South 11.5 mph - 0.00 in Snow Light Snow
8:11 AM 17.6 °F 4.3 °F 14.0 °F 86% 30.15 in 1.0 mi South 12.7 mph - 0.00 in Snow Light Snow
8:43 AM 17.6 °F 4.3 °F 14.0 °F 86% 30.14 in 0.8 mi South 12.7 mph 18.4 mph 0.01 in Snow Light Snow
8:54 AM 17.1 °F 4.3 °F 15.1 °F 92% 30.27 in 0.5 mi South 11.5 mph - 0.01 in Fog , Snow Snow
9:12 AM 17.6 °F 5.0 °F 15.8 °F 93% 30.13 in 0.5 mi South 11.5 mph - 0.01 in Fog , Snow Snow
9:22 AM 17.6 °F 5.0 °F 15.8 °F 93% 30.12 in 0.8 mi South 11.5 mph - 0.02 in Snow Light Snow
9:54 AM 19.0 °F 6.1 °F 16.0 °F 88% 30.23 in 0.5 mi South 12.7 mph - 0.03 in Fog , Snow Snow
10:02 AM 19.4 °F 6.6 °F 15.8 °F 86% 30.09 in 0.2 mi South 12.7 mph - 0.01 in Fog , Snow Light Snow
10:08 AM 19.4 °F 7.2 °F 15.8 °F 86% 30.09 in 0.5 mi South 11.5 mph - 0.01 in Fog , Snow Light Snow
10:25 AM 19.4 °F 6.0 °F 17.6 °F 93% 30.07 in 1.2 mi South 13.8 mph - 0.01 in Snow Light Snow
10:39 AM 19.4 °F 6.0 °F 17.6 °F 93% 30.07 in 0.8 mi South 13.8 mph - 0.01 in Snow Light Snow
10:54 AM 21.0 °F 8.1 °F 18.0 °F 88% 30.18 in 1.0 mi South 13.8 mph - 0.02 in Snow Light Snow
11:33 AM 21.2 °F 8.3 °F 17.6 °F 86% 30.06 in 0.8 mi SSW 13.8 mph - 0.00 in Snow Light Snow
11:43 AM 21.2 °F 8.3 °F 17.6 °F 86% 30.05 in 1.2 mi SSW 13.8 mph - 0.00 in Snow Light Snow
11:51 AM 21.2 °F 7.3 °F 17.6 °F 86% 30.05 in 1.5 mi SSW 16.1 mph - 0.00 in Snow Light Snow
11:54 AM 21.9 °F 8.7 °F 18.0 °F 85% 30.17 in 1.2 mi SSW 15.0 mph - 0.00 in Snow Light Snow
12:29 PM 23.0 °F 10.1 °F 19.4 °F 86% 30.02 in 2.0 mi SSW 15.0 mph - 0.00 in Snow Light Snow
12:37 PM 24.8 °F 12.4 °F 19.4 °F 80% 30.01 in 1.8 mi SW 15.0 mph - 0.00 in Snow Light Snow
12:47 PM 24.8 °F 13.4 °F 21.2 °F 86% 30.00 in 3.0 mi SSW 12.7 mph - 0.00 in Snow Light Snow
12:54 PM 25.0 °F 14.2 °F 21.0 °F 85% 30.12 in 3.0 mi SW 11.5 mph 19.6 mph 0.00 in Snow Light Snow
1:03 PM 26.6 °F 16.8 °F 21.2 °F 80% 29.99 in 3.0 mi SW 10.4 mph 19.6 mph 0.00 in Snow Light Snow
1:27 PM 26.6 °F 14.3 °F 21.2 °F 80% 29.98 in 2.5 mi SW 16.1 mph - 0.00 in Snow Light Snow
1:54 PM 27.0 °F 17.3 °F 21.9 °F 81% 30.08 in 2.0 mi SW 10.4 mph - 0.00 in Snow Light Snow
2:03 PM 26.6 °F 15.2 °F 21.2 °F 80% 29.96 in 1.5 mi SW 13.8 mph - 0.00 in Snow Light Snow
2:18 PM 26.6 °F 15.7 °F 23.0 °F 86% 29.96 in 2.0 mi SW 12.7 mph - 0.00 in Snow Light Snow
2:28 PM 26.6 °F 14.7 °F 21.2 °F 80% 29.96 in 1.5 mi SW 15.0 mph - 0.00 in Snow Light Snow
2:49 PM 26.6 °F 15.7 °F 23.0 °F 86% 29.96 in 3.0 mi SW 12.7 mph - 0.01 in Snow Light Snow
2:54 PM 27.0 °F 16.7 °F 23.0 °F 85% 30.06 in 4.0 mi SW 11.5 mph - 0.01 in Snow Light Snow
3:03 PM 26.6 °F 16.2 °F 23.0 °F 86% 29.95 in 1.8 mi SW 11.5 mph - 0.00 in Snow Light Snow
3:54 PM 28.0 °F 20.0 °F 25.0 °F 88% 30.06 in 2.0 mi WSW 8.1 mph - 0.01 in Snow Light Snow
4:05 PM 26.6 °F 18.2 °F 24.8 °F 93% 29.96 in 1.2 mi WSW 8.1 mph - 0.00 in Snow Light Snow
4:11 PM 26.6 °F 18.2 °F 24.8 °F 93% 29.96 in 2.0 mi WSW 8.1 mph - 0.00 in Snow Light Snow
4:19 PM 28.4 °F 20.4 °F 24.8 °F 86% 29.96 in 8.0 mi WSW 8.1 mph - 0.00 in   Overcast
4:27 PM 28.4 °F 21.2 °F 24.8 °F 86% 29.96 in 8.0 mi WSW 6.9 mph - 0.00 in   Overcast
4:30 PM 28.4 °F 21.2 °F 24.8 °F 86% 29.96 in 8.0 mi WSW 6.9 mph - 0.00 in   Overcast
4:54 PM 28.0 °F 20.0 °F 24.1 °F 85% 30.06 in 8.0 mi West 8.1 mph - 0.00 in   Overcast
5:54 PM 28.0 °F 20.0 °F 24.1 °F 85% 30.07 in 10.0 mi West 8.1 mph - N/A   Overcast
6:54 PM 28.0 °F 19.3 °F 23.0 °F 81% 30.08 in 10.0 mi West 9.2 mph - N/A   Overcast
7:34 PM 26.6 °F 16.2 °F 23.0 °F 86% 29.98 in 7.0 mi West 11.5 mph - N/A   Overcast
7:44 PM 26.6 °F 16.8 °F 23.0 °F 86% 29.98 in 8.0 mi West 10.4 mph - N/A   Overcast
7:54 PM 27.0 °F 16.1 °F 23.0 °F 85% 30.09 in 7.0 mi West 12.7 mph - N/A   Overcast
8:54 PM 27.0 °F 17.3 °F 24.1 °F 89% 30.09 in 5.0 mi West 10.4 mph - 0.00 in Snow Light Snow
9:06 PM 26.6 °F 18.2 °F 23.0 °F 86% 29.98 in 6.0 mi West 8.1 mph - 0.00 in   Overcast
9:54 PM 26.1 °F 16.8 °F 23.0 °F 88% 30.09 in 5.0 mi West 9.2 mph - 0.00 in Snow Light Snow
10:09 PM 26.6 °F 16.8 °F 23.0 °F 86% 29.98 in 5.0 mi West 10.4 mph - 0.00 in Snow Light Snow
10:54 PM 26.1 °F 16.8 °F 24.1 °F 92% 30.08 in 7.0 mi WSW 9.2 mph - 0.00 in   Overcast
11:54 PM 26.1 °F 19.4 °F 23.0 °F 88% 30.08 in 6.0 mi West 5.8 mph - 0.00 in   Overcast